Regional Weather Roundup
Issued by NWS

Home | Current Version | Previous Version | Graphics & Text | Print | Product List | Glossary On
Versions: 1 2 3 4 5 6 7 8 9 10 11 12 13 14 15 16 17 18 19 20 21 22 23 24 25 26 27
000
ASUS45 KTFX 250810
RWRMT
MONTANA REGIONAL WEATHER ROUNDUP
NATIONAL WEATHER SERVICE GREAT FALLS MT
200 AM MDT SUN SEP 25 2016

NOTE: "FAIR" INDICATES FEW OR NO CLOUDS BELOW 12000 FEET WITH NO
SIGNIFICANT WEATHER AND/OR OBSTRUCTIONS TO VISIBILITY.

MTZ001>007-043-250900-
WEST OF THE DIVIDE

CITY           SKY/WX    TMP DP  RH WIND       PRES   REMARKS
KALISPELL      PTCLDY    38  35  89 CALM      30.37R
MISSOULA       CLEAR     42  37  82 CALM      30.44R
BUTTE          CLEAR     31  28  89 SE7       30.44R WCI  24
MULLAN PASS    PTCLDY    39  32  76 CALM      30.44R
ANACONDA         N/A     39  30  70 SW7       30.43S
DEER LODGE       N/A     39  30  70 CALM      30.46R
EUREKA           N/A     41  36  81 CALM      30.36R
HAMILTON         N/A     43  36  75 S8        30.44R
LIBBY            N/A     39  36  87 CALM      30.37R
RONAN            N/A     41  35  79 CALM      30.40R
$$

MTZ008-052>055-250900-
SOUTHWEST MONTANA

CITY           SKY/WX    TMP DP  RH WIND       PRES   REMARKS
BOZEMAN        CLEAR     36  32  85 SE8       30.40R WCI  30
DILLON           N/A     38  31  76 S8        30.42R
W YELLOWSTONE    N/A     27  27 100 CALM      30.45R
ENNIS          CLEAR     37  30  75 CALM      30.47R
THREE FORKS      N/A     36  30  79 CALM      30.34R
$$

MTZ009-010-012-014-046-048-049-054-250900-
EAST SLOPES AND CENTRAL MONTANA

CITY           SKY/WX    TMP DP  RH WIND       PRES   REMARKS
CUT BANK       CLEAR     40  34  79 W5        30.29S
GREAT FALLS    CLEAR     41  35  79 SW12      30.33R
MALMSTROM AFB  CLEAR     42  38  85 SW13      30.33R
HELENA         CLEAR     50  33  52 W8        30.37R
AUGUSTA          N/A     38  32  79 SE5       30.32R
BOWMANS CRNR     N/A     41  33  74 SW6       30.33R
CHOTEAU          N/A     41  34  75 S8        30.33S
FAIRFIELD        N/A     41  33  73 SW2       30.31R
POWER            N/A     38  34  84 SW6       30.31R
RAYNESFORD       N/A     40  36  83 SE2       30.34R
$$

MTZ011-013-016-021-045-047-050-051-250900-
NORTH CENTRAL MONTANA

CITY           SKY/WX    TMP DP  RH WIND       PRES   REMARKS
HAVRE          PTCLDY    40  38  93 W8        30.28R
LEWISTOWN      PTCLDY    40  38  93 W9        30.32R
N BAR RANCH      N/A     43  39  87 N3        30.33R
CHINOOK          N/A     39  37  93 NW5       30.26R
DENTON           N/A     43  39  88 W13       30.28R
GEYSER           N/A     38  32  79 SE5       30.32R
GRASS RANGE      N/A     44  41  91 W9        30.27R
JUDITH GAP       N/A     46  34  62 MISG      30.33R
ROY              N/A     44  41  91 MISG      30.28R
STANFORD       PTSUNNY   46  37  72 W10       30.32R
WINIFRED         N/A     43  40  89 MISG      30.30R
$$

MTZ017>020-022>027-061-062-250900-
NORTHEAST MONTANA

CITY           SKY/WX    TMP DP  RH WIND       PRES   REMARKS
GLASGOW        CLEAR     44  36  73 W14       30.18R
JORDAN           N/A     41  38  89 NW9       30.23R
SIDNEY         CLOUDY    52  46  80 NW23      30.05R
WOLF POINT     PTCLDY    47  40  76 W9        30.13R
PLENTYWOOD       N/A     48  43  81 NW16G22   30.02R
POPLAR           N/A     48  41  76 W12       30.10R
$$

MTZ028>42-056>058-250900-
SOUTHCENTRAL AND SOUTHEAST MONTANA

CITY           SKY/WX    TMP DP  RH WIND       PRES   REMARKS
BAKER          LGT RAIN  49  32  52 W20G25    30.11R
BILLINGS       CLOUDY    51  42  71 W8        30.32R
LIVINGSTON     CLEAR     42  32  67 NW14      30.36R
MILES CITY     CLEAR     48  42  80 W18G26    30.20R
BIG TIMBER     CLEAR     46  32  57 SW18G26   30.37R
FORSYTH          N/A     48  45  87 W9        30.24R
HARLOWTON        N/A     42  35  77 W15       30.34R
LAUREL           N/A     52  40  63 W8        30.28R
ROUNDUP          N/A     48  37  65 W3        30.19R
$$

REGIONAL REPORTS...DAKOTAS

CITY           SKY/WX    TMP DP  RH WIND       PRES   REMARKS
WILLISTON      RAIN      51  48  89 NW21G30   30.00R
MINOT          LGT RAIN  54  52  93 NW23G32   29.80R FOG
DICKINSON      LGT RAIN  48  45  89 NW24G38   29.96R
CROSBY         MOCLDY    50  50 100 NW18G25   29.97R
WATFORD CITY   RAIN      48  48 100 NW17G25   29.99R
BISMARCK       CLOUDY    53  51  93 W13       29.78R
GRAND FORKS    CLEAR     65  62  90 S12       29.73S
FARGO          CLEAR     63  56  78 SW12      29.78S
BUFFALO SD       N/A     50  46  86 NW33G44   29.99R
RAPID CITY     CLOUDY    54  40  59 NW25G37   30.13R
$$

REGIONAL REPORTS...WYOMING/IDAHO/WASHINGTON

CITY           SKY/WX    TMP DP  RH WIND       PRES   REMARKS
GILLETTE       CLEAR     45  43  93 W13       30.27R
SHERIDAN       CLOUDY    50  41  71 NW13      30.30R
BUFFALO WY     CLOUDY    49  36  61 NW16G28   30.30R
CODY           CLEAR     41  38  89 CALM      30.37R
YELLOWSTONE LA   N/A     27  27 100 CALM      30.48R
IDAHO FALLS    CLEAR     44  37  76 SW8       30.42R
SALMON         CLEAR     36  32  87 CALM      30.45R
BOISE          CLEAR     51  35  54 SE3       30.39R
SPOKANE        MOCLDY    54  35  48 S7        30.38R
$$

REGIONAL REPORTS...ALBERTA

CITY           SKY/WX    TMP DP  RH WIND       PRES   REMARKS
EDMONTON       PTCLDY    39  30  70 W8        30.21R
CALGARY        PTCLDY    43  27  52 CALM      30.26R
LETHBRIDGE     CLEAR     45  34  65 W14       30.26R
MEDICINE HAT   PTCLDY    37  36  93 W2        30.24R
WATERTON GATE    N/A     48  32  53 SW15G22     N/A
CARDSTON         N/A     43  32  65 SW6         N/A
MILK RIVER       N/A     37  36  93 NW9         N/A  WCI  31
ONEFOUR          N/A     41  37  87 NW8         N/A
$$

REGIONAL REPORTS...SASKATCHEWAN

CITY           SKY/WX    TMP DP  RH WIND       PRES   REMARKS
SWIFT CURRENT  CLEAR     41  36  81 W10       30.16R
REGINA         MOCLDY    46  43  87 NW17G24   30.00R
SASKATOON      CLEAR     41  39  93 NW13      30.08S
CYPRESS HILLS    N/A     37  28  70 W2          N/A
VAL MARIE        N/A     41  32  70 NW9         N/A
ROCKGLEN         N/A     43  36  75 NW16G24     N/A
ASSINIBOIA       N/A     37  32  81 W6          N/A
$$




USA.gov is the U.S. government's official web portal to all federal, state and local government web resources and services.